Location: Aalen
(48.8330°N, 10.1000°E)
Time: 18:53:00
(UTC+02:00)

S-56A Canister/Altair - Pass Details

Date: 03 August 2021
Orbit: 632 x 2500 km, 38.9° (Epoch: 19 September)

Event Time Altitude Azimuth Distance (km) Brightness Sun altitude
Rises 18:03:44 0° 260° (W) 5,731 13.3 26.4°
Reaches altitude 10° 18:07:19 10° 256° (WSW) 4,888 13.4 25.8°
Maximum altitude 18:21:19 57° 184° (S) 2,823 10.8 23.5°
Drops below altitude 10° 18:35:13 10° 112° (ESE) 4,858 11.1 21.2°
Sets 18:38:46 0° 108° (ESE) 5,695 11.4 20.6°
